STARLINK-4340, 53494

Orbit data source: Space-Track

STARLINK-4340, 53494 is a payload satellite owned by SpaceX/Seattle (US) in SSO that was launched on Fri, 12 Aug 2022 UTC via an FALCON 9 launch vehicle from the Air Force Western Test Range (AFWTR). Payload-class satellites include a variety of spacecraft equipped with specific instruments for various scientific and technological missions. These include communications satellites like Starlink; space stations such as the ISS; scientific satellites like the Hubble; Earth observation satellites from companies like Planet Labs, Umbra, and HawkEye 360; GPS; miniature CubeSats for education and research; and military/defense satellites.

Loading next visibility...
Identifier
53494, 2022-099AF
Orbit
SSO
Country
Flag of USUS
Related business
Manufacturer
SpaceX/Seattle
Mission
Operational Commercial Communications
Bus & Motor
STARLINK, Unknown motor
Mass
300 kg wet, ~275 kg dry
Launch date (UTC)
2022-08-12 (3 years ago)
Launch vehicle
FALCON 9
Launch site
Air Force Western Test Range (AFWTR)
Object type
Payload
Rocket body
Debris
Shape & HBR
Box + 1 Pan, 10.1 m
Radar Cross Section
13.562 m², Large (>1 m²)

Expand to show TLE details & history
Last TLE update: 11 hours ago

TLE from 11 hours ago
0 STARLINK-4340
1 53494U 22099AF  25308.29024478  .00000685  00000-0  51672-4 0  9995
2 53494  97.6017  67.6540 0001641 101.3749 258.7662 15.05663437177182
Epoch: 2025-11-04T06:57Z
TLE epoch observation values (Epoch: 2025-11-04T06:57:57.148Z)
Latitude
-0.00008°
Longitude
-80.6135°
Altitude
552.757 km
Speed
7.585 km/s
True Right ascension
04h 30m 36s
True Declination
0° 00' 00"
Sunlit
Object was in full shadow at epoch
Visualization orbit readout
Latitude
Unknown
Longitude
Unknown
Altitude
Unknown
Speed
Unknown
Apparent Right ascension
Unknown
Apparent Declination
Unknown
Sunlit
N/A
Visualization observer readout
Local Sidereal Time
13:57:39
Azimuth
Unknown
Elevation
Unknown
Doppler factor
Unknown
Orbital elements
Apogee altitude
547.6 km
Perigee altitude
545.327 km
Semi-major axis
6,924.6 km
Eccentricity
0.00016
Inclination
97.6017°
RAAN
67.654°
Arg. of periapsis
101.3749°
True anomaly
258.74776°
Mean anomaly
258.7662°
Eccentric anomaly
258.75698°
Mean motion
3.76661 °/min
Orbital period
95.58 mins
BSTAR
0.000051672
Loading maneuver chart data...
Computing Atmospheric mass density...
Loading historical data...
Loading historical data...
Loading historical data...
Loading historical data...
Loading historical data...
Loading historical data...
Loading historical data...

Documentation

Showing up to 5 results
|